Weather History for Salida, CO

Change the Weather History Date:

Monday, August 25, 2014

  Actual Average (KGUC) Record (KGUC)
Temperature  
Mean Temperature 65 °F -  
Max Temperature 78 °F 73 °F 82 °F (2007)
Min Temperature 52 °F 40 °F 33 °F (2002)
Growing Degree Days 15 (Base 50)    
Moisture  
Dew Point 43 °F    
Average Humidity 54    
Maximum Humidity 89    
Minimum Humidity 22    
Precipitation  
Precipitation 0.00 in - - ()
Sea Level Pressure  
Sea Level Pressure 30.34 in    
Wind  
Wind Speed 5 mph (WNW)    
Max Wind Speed 20 mph    
Max Gust Speed 29 mph    
Visibility 10 miles    
Events      
Averages and records for this station are not official NWS values.
T = Trace of Precipitation, MM = Missing Value Source: NWS Daily Summary

Daily Weather History Graph

Daily Weather History Graph

Search for Another Location

Airport:

Trip Planner

Search our weather history database for the weather conditions in past years. The results will help you decide how hot, cold, wet, or windy it might be!

Date:

Astronomy

Aug. 25, 2014 Rise Set
Actual Time 6:27 AM MDT 7:44 PM MDT
Civil Twilight 5:59 AM MDT 8:11 PM MDT
Nautical Twilight 5:26 AM MDT 8:44 PM MDT
Astronomical Twilight 4:52 AM MDT 9:19 PM MDT
Moon 6:34 AM MDT (8/25) 7:37 PM MDT (8/25)
Length of Visible Light 14h 12m
Length of Day
13h 17m
New Moon, 0% of the Moon is Illuminated
Aug 25
New Moon
Sep 2
First Quarter
Sep 8
Full
Sep 15
Last Quarter
Sep 24
New

Hourly Weather History & Observations

Time (MDT) Temp. Dew Point Humidity Pressure Visibility Wind Dir Wind Speed Gust Speed Precip Events Conditions
12:15 AM 60.1 °F 40.3 °F 48% 30.30 in 10.0 mi WNW 4.6 mph - N/A   Clear
12:35 AM 58.3 °F 40.5 °F 52% 30.30 in 10.0 mi Calm Calm - N/A   Clear
12:55 AM 55.9 °F 41.0 °F 57% 30.30 in 10.0 mi Calm Calm - N/A   Clear
1:15 AM 58.1 °F 40.1 °F 51% 30.31 in 10.0 mi NNW 4.6 mph - N/A   Clear
1:35 AM 57.7 °F 40.1 °F 52% 30.30 in 10.0 mi Calm Calm - N/A   Clear
1:55 AM 56.8 °F 39.7 °F 53% 30.30 in 10.0 mi West 4.6 mph - N/A   Clear
2:15 AM 57.4 °F 38.5 °F 49% 30.30 in 10.0 mi NW 6.9 mph - N/A   Clear
2:35 AM 57.7 °F 38.3 °F 48% 30.31 in 10.0 mi NW 6.9 mph - N/A   Clear
3:15 AM 56.1 °F 38.1 °F 51% 30.30 in 10.0 mi WNW 4.6 mph - N/A   Clear
3:35 AM 54.5 °F 38.3 °F 54% 30.30 in 10.0 mi NNW 6.9 mph - N/A   Clear
4:15 AM 54.7 °F 38.3 °F 54% 30.30 in 10.0 mi North 4.6 mph - N/A   Clear
4:35 AM 54.1 °F 38.3 °F 55% 30.31 in 10.0 mi NNW 5.8 mph - N/A   Clear
4:55 AM 53.4 °F 38.5 °F 57% 30.31 in 10.0 mi NNW 4.6 mph - N/A   Clear
5:15 AM 53.8 °F 38.5 °F 56% 30.32 in 10.0 mi North 4.6 mph - N/A   Clear
5:35 AM 52.9 °F 38.5 °F 58% 30.32 in 10.0 mi North 5.8 mph - N/A   Clear
5:55 AM 52.7 °F 38.3 °F 58% 30.33 in 10.0 mi NNW 8.1 mph - N/A   Clear
6:15 AM 53.4 °F 38.5 °F 57% 30.34 in 10.0 mi NNW 6.9 mph - N/A   Clear
6:35 AM 52.7 °F 38.5 °F 58% 30.35 in 10.0 mi NNW 3.5 mph - N/A   Clear
6:55 AM 52.0 °F 38.7 °F 60% 30.35 in 10.0 mi Calm Calm - N/A   Clear
7:15 AM 52.3 °F 38.7 °F 60% 30.36 in 10.0 mi NW 4.6 mph - N/A   Clear
7:35 AM 53.6 °F 38.8 °F 57% 30.37 in 10.0 mi NNW 9.2 mph - N/A   Clear
7:55 AM 54.7 °F 39.0 °F 56% 30.37 in 10.0 mi North 6.9 mph - N/A   Clear
8:35 AM 58.5 °F 39.4 °F 49% 30.36 in 10.0 mi Calm Calm - N/A   Clear
8:55 AM 61.3 °F 39.6 °F 45% 30.36 in 10.0 mi Calm Calm - N/A   Clear
9:15 AM 64.0 °F 38.5 °F 39% 30.35 in 10.0 mi Calm Calm - N/A   Clear
9:35 AM 66.2 °F 41.2 °F 40% 30.35 in 10.0 mi Calm Calm - N/A   Clear
9:55 AM 70.0 °F 40.1 °F 34% 30.35 in 10.0 mi East 3.5 mph - N/A   Scattered Clouds
10:15 AM 72.1 °F 41.2 °F 33% 30.35 in 10.0 mi NNE 3.5 mph - N/A   Mostly Cloudy
10:35 AM 72.3 °F 39.4 °F 30% 30.35 in 10.0 mi North 3.5 mph - N/A   Mostly Cloudy
10:55 AM 74.5 °F 38.1 °F 27% 30.35 in 10.0 mi SE 3.5 mph - N/A   Mostly Cloudy
11:15 AM 76.6 °F 34.7 °F 22% 30.35 in 10.0 mi SSW 9.2 mph - N/A   Scattered Clouds
11:35 AM 77.2 °F 36.1 °F 23% 30.35 in 10.0 mi SE 12.7 mph 19.6 mph N/A   Scattered Clouds
11:55 AM 78.1 °F 36.9 °F 23% 30.34 in 10.0 mi SE 12.7 mph - N/A   Mostly Cloudy
12:15 PM 75.9 °F 38.1 °F 26% 30.34 in 10.0 mi ESE 11.5 mph - N/A   Scattered Clouds
12:35 PM 75.7 °F 37.8 °F 25% 30.33 in 10.0 mi ESE 9.2 mph - N/A   Mostly Cloudy
12:55 PM 75.2 °F 38.3 °F 26% 30.33 in 10.0 mi SE 8.1 mph - N/A   Mostly Cloudy
1:15 PM 75.9 °F 37.8 °F 25% 30.32 in 10.0 mi SSE 12.7 mph 20.7 mph N/A   Overcast
1:35 PM 76.3 °F 35.4 °F 23% 30.31 in 10.0 mi South 15.0 mph 21.9 mph N/A   Overcast
1:55 PM 74.7 °F 36.0 °F 24% 30.31 in 10.0 mi South 10.4 mph 21.9 mph N/A   Overcast
2:15 PM 67.5 °F 41.7 °F 39% 30.34 in 10.0 mi West 19.6 mph 28.8 mph N/A   Overcast
2:35 PM 62.8 °F 41.9 °F 46% 30.35 in 10.0 mi WSW 17.3 mph 25.3 mph N/A   Overcast
2:55 PM 55.4 °F 47.1 °F 74% 30.38 in 2.0 mi West 13.8 mph - N/A   Overcast
3:15 PM 56.7 °F 48.6 °F 74% 30.37 in 10.0 mi West 13.8 mph - N/A   Overcast
3:35 PM 55.4 °F 50.2 °F 83% 30.36 in 1.8 mi WSW 9.2 mph - N/A   Overcast
4:15 PM 62.2 °F 51.6 °F 68% 30.35 in 10.0 mi SE 4.6 mph - N/A   Mostly Cloudy
4:35 PM 62.1 °F 50.9 °F 67% 30.34 in 10.0 mi Calm Calm - N/A   Overcast
4:55 PM 59.9 °F 52.0 °F 75% 30.34 in 10.0 mi SE 3.5 mph - N/A   Overcast
5:15 PM 60.8 °F 51.8 °F 72% 30.33 in 10.0 mi SSE 3.5 mph - N/A   Mostly Cloudy
5:35 PM 59.9 °F 54.1 °F 81% 30.33 in 10.0 mi North 3.5 mph - N/A   Mostly Cloudy
5:55 PM 60.1 °F 52.9 °F 77% 30.34 in 10.0 mi NW 8.1 mph - N/A   Mostly Cloudy
6:35 PM 63.0 °F 54.0 °F 72% 30.34 in 10.0 mi ESE 4.6 mph - N/A   Mostly Cloudy
6:55 PM 60.3 °F 54.0 °F 80% 30.34 in 10.0 mi South 3.5 mph - N/A   Overcast
7:15 PM 60.1 °F 52.5 °F 76% 30.35 in 10.0 mi South 5.8 mph - N/A   Mostly Cloudy
7:35 PM 59.5 °F 54.1 °F 82% 30.36 in 10.0 mi Calm Calm - N/A   Scattered Clouds
7:55 PM 57.2 °F 54.0 °F 89% 30.36 in 10.0 mi Calm Calm - N/A   Clear
8:55 PM 57.7 °F 53.1 °F 84% 30.38 in 10.0 mi WNW 3.5 mph - N/A   Mostly Cloudy
9:15 PM 56.8 °F 51.4 °F 82% 30.39 in 10.0 mi Calm Calm - N/A   Mostly Cloudy
9:55 PM 54.9 °F 50.2 °F 84% 30.39 in 10.0 mi West 3.5 mph - N/A   Scattered Clouds
10:35 PM 53.2 °F 49.1 °F 86% 30.39 in 10.0 mi West 5.8 mph - N/A   Clear